Kezdőlap
METAR-TAF:

METAR-TAF

Repülőterek :

Rochelle Municipal Airport (Koritz Field)

Rochelle, Illinois, Amerikai Egyesült Államok

földrajzi szélesség: 41-53-35N, földrajzi hosszúság: 089-04-42W, magasság: 238 m

Jelenlegi meteorológiai megfigyelések

A jelentés 20 perccel ezelõtt készült, 10:15 UTC
Kelet-északkeleti szél 6 kt
Hőmérséklet 10°C
Páratartalom 71%
Légköri nyomás 1015 hPa
Látótávolság: 16.1 km
Derült ég

METAR: KRPJ 171015Z AUTO 06006KT 10SM CLR 10/05 A2998 RMK AO2 T00950051 TSNO

Idő: 05:35 (10:35 UTC)


TAF: hiányzik

Meteorológiai megfigyelések és előrejelzések több, mint 4000 repülőtéren (METAR és TAF jelentéseket).

A térképen piros és sárga pontok jelzik az elérhető meteorológiai állomásokat.

Mozgassa az egeret a pont fölött, hogy megjelenjen az állomás neve.

Azután kattintson az időjárási megfigyelések és előrejelzések megtekintéséhez.

A térkép megváltoztatása: kattintson a fekete keresztel jelölt zöld gombra ráközelítéshez, a vonallal jelölt zöld gombra távolításhoz, vagy a zöld nyilakra a szomszédos térképek eléréséhez.


METAR-TAF: